ROA215 SCFA-SCEL

Flight info

Callsign ROA215
Flight time 1h 31m
Altitude 35000
Route UKATO3A UKATO UQ803 SIMOK SIMOK7B
Aircraft A320/M-SDE3FGHIRWY/LB1

Departure

Time 2026-04-25 03:38
Airport Andrés Sabella Gálvez International Airport (SCFA)

Arrival

Time 2026-04-25 05:10
Airport Comodoro Arturo Merino Benítez International Airport (SCEL)
Time Latitude Longitude Altitude Speed Heading
2026-04-25 03:07 -23.44873 -70.44166 366 ft 0 kts 96°
2026-04-25 03:28 -23.44873 -70.44167 366 ft 2 kts 96°
2026-04-25 03:28 -23.44871 -70.44192 368 ft 3 kts 96°
2026-04-25 03:28 -23.44869 -70.44213 366 ft 3 kts 89°
2026-04-25 03:29 -23.44872 -70.44239 366 ft 3 kts 63°
2026-04-25 03:29 -23.44886 -70.44256 368 ft 3 kts 13°
2026-04-25 03:29 -23.44891 -70.44257 367 ft 0 kts
2026-04-25 03:32 -23.44881 -70.44256 366 ft 4 kts
2026-04-25 03:32 -23.44845 -70.44254 366 ft 7 kts 355°
2026-04-25 03:32 -23.44784 -70.44272 367 ft 11 kts 343°
2026-04-25 03:33 -23.44699 -70.44299 369 ft 14 kts 344°
2026-04-25 03:33 -23.44609 -70.44323 371 ft 12 kts 352°
2026-04-25 03:33 -23.44527 -70.44324 374 ft 14 kts
2026-04-25 03:33 -23.44421 -70.44311 377 ft 17 kts
2026-04-25 03:34 -23.44299 -70.44296 383 ft 19 kts
2026-04-25 03:34 -23.44164 -70.44279 389 ft 20 kts
2026-04-25 03:34 -23.44021 -70.44261 396 ft 21 kts
2026-04-25 03:34 -23.43871 -70.44242 406 ft 22 kts
2026-04-25 03:35 -23.43732 -70.44225 415 ft 17 kts
2026-04-25 03:35 -23.43640 -70.44214 416 ft 10 kts
2026-04-25 03:35 -23.43573 -70.44206 421 ft 10 kts
2026-04-25 03:35 -23.43499 -70.44197 430 ft 11 kts
2026-04-25 03:36 -23.43417 -70.44187 435 ft 12 kts
2026-04-25 03:36 -23.43360 -70.44201 430 ft 6 kts 329°
2026-04-25 03:36 -23.43328 -70.44226 441 ft 8 kts 322°
2026-04-25 03:36 -23.43289 -70.44262 433 ft 5 kts 320°
2026-04-25 03:37 -23.43271 -70.44286 434 ft 6 kts 290°
2026-04-25 03:37 -23.43292 -70.44347 434 ft 9 kts 243°
2026-04-25 03:37 -23.43319 -70.44367 433 ft 0 kts 188°
2026-04-25 03:38 -23.43511 -70.44390 418 ft 66 kts 187°
2026-04-25 03:38 -23.44201 -70.44476 387 ft 130 kts 186°
2026-04-25 03:38 -23.45249 -70.44603 527 ft 163 kts 187°
2026-04-25 03:38 -23.46372 -70.44712 1199 ft 164 kts 182°
2026-04-25 03:39 -23.47580 -70.44598 1540 ft 186 kts 172°
2026-04-25 03:39 -23.48932 -70.44336 1840 ft 210 kts 169°
2026-04-25 03:39 -23.50451 -70.44018 2240 ft 234 kts 168°
2026-04-25 03:39 -23.52130 -70.43669 2741 ft 254 kts 168°
2026-04-25 03:40 -23.53903 -70.43311 3477 ft 262 kts 168°
2026-04-25 03:40 -23.55719 -70.42955 4298 ft 267 kts 168°
2026-04-25 03:40 -23.57555 -70.42603 5095 ft 270 kts 169°
2026-04-25 03:40 -23.59417 -70.42249 5859 ft 273 kts 169°
2026-04-25 03:41 -23.61303 -70.41893 6599 ft 277 kts 169°
2026-04-25 03:41 -23.63211 -70.41536 7312 ft 280 kts 169°
2026-04-25 03:41 -23.65145 -70.41178 8030 ft 284 kts 169°
2026-04-25 03:41 -23.67079 -70.40820 8735 ft 288 kts 169°
2026-04-25 03:42 -23.69067 -70.40451 9415 ft 292 kts 169°
2026-04-25 03:42 -23.71096 -70.40073 10067 ft 298 kts 170°
2026-04-25 03:42 -23.73213 -70.39675 10283 ft 320 kts 170°
2026-04-25 03:42 -23.75482 -70.39249 10505 ft 339 kts 170°
2026-04-25 03:43 -23.77832 -70.38810 11030 ft 346 kts 170°
2026-04-25 03:43 -23.80226 -70.38451 11651 ft 349 kts 178°
2026-04-25 03:43 -23.82656 -70.38362 12311 ft 350 kts 179°
2026-04-25 03:43 -23.85097 -70.38280 12994 ft 351 kts 179°
2026-04-25 03:44 -23.87547 -70.38200 13630 ft 354 kts 179°
2026-04-25 03:44 -23.90022 -70.38122 14187 ft 357 kts 180°
2026-04-25 03:44 -23.92516 -70.38045 14705 ft 361 kts 180°
2026-04-25 03:44 -23.95038 -70.37964 15226 ft 364 kts 180°
2026-04-25 03:45 -23.97582 -70.37881 15755 ft 367 kts 180°
2026-04-25 03:45 -24.00143 -70.37797 16298 ft 370 kts 180°
2026-04-25 03:45 -24.02729 -70.37710 16839 ft 374 kts 180°
2026-04-25 03:45 -24.05343 -70.37622 17377 ft 377 kts 180°
2026-04-25 03:46 -24.07973 -70.37533 17914 ft 380 kts 181°
2026-04-25 03:46 -24.10628 -70.37446 18418 ft 383 kts 181°
2026-04-25 03:46 -24.13267 -70.37363 18862 ft 386 kts 181°
2026-04-25 03:46 -24.15960 -70.37276 19309 ft 388 kts 181°
2026-04-25 03:47 -24.18671 -70.37185 19730 ft 391 kts 181°
2026-04-25 03:47 -24.21402 -70.37090 20152 ft 394 kts 181°
2026-04-25 03:47 -24.24153 -70.36995 20572 ft 397 kts 182°
2026-04-25 03:47 -24.26918 -70.36900 20986 ft 399 kts 182°
2026-04-25 03:48 -24.29698 -70.36803 21411 ft 401 kts 182°
2026-04-25 03:48 -24.32499 -70.36709 21821 ft 404 kts 182°
2026-04-25 03:48 -24.35313 -70.36617 22249 ft 406 kts 183°
2026-04-25 03:48 -24.38149 -70.36525 22640 ft 409 kts 183°
2026-04-25 03:49 -24.40994 -70.36435 23032 ft 411 kts 184°
2026-04-25 03:49 -24.43868 -70.36339 23421 ft 414 kts 184°
2026-04-25 03:49 -24.46759 -70.36240 23747 ft 417 kts 184°
2026-04-25 03:49 -24.49666 -70.36139 24042 ft 420 kts 184°
2026-04-25 03:50 -24.52594 -70.36039 24331 ft 422 kts 184°
2026-04-25 03:50 -24.55547 -70.35939 24618 ft 425 kts 184°
2026-04-25 03:50 -24.58513 -70.35839 24902 ft 428 kts 184°
2026-04-25 03:50 -24.61506 -70.35738 25185 ft 431 kts 184°
2026-04-25 03:51 -24.64471 -70.35640 25482 ft 434 kts 184°
2026-04-25 03:51 -24.67494 -70.35538 25761 ft 436 kts 184°
2026-04-25 03:51 -24.70544 -70.35437 26034 ft 440 kts 184°
2026-04-25 03:51 -24.73609 -70.35335 26317 ft 443 kts 184°
2026-04-25 03:52 -24.76701 -70.35234 26593 ft 445 kts 184°
2026-04-25 03:52 -24.79806 -70.35133 26859 ft 448 kts 184°
2026-04-25 03:52 -24.82938 -70.35030 27115 ft 451 kts 184°
2026-04-25 03:52 -24.86083 -70.34924 27371 ft 454 kts 184°
2026-04-25 03:53 -24.89252 -70.34816 27634 ft 457 kts 184°
2026-04-25 03:53 -24.92440 -70.34709 27890 ft 460 kts 185°
2026-04-25 03:53 -24.95639 -70.34602 28203 ft 461 kts 185°
2026-04-25 03:53 -24.98856 -70.34493 28504 ft 464 kts 185°
2026-04-25 03:54 -25.02090 -70.34383 28752 ft 466 kts 185°
2026-04-25 03:54 -25.05338 -70.34273 29013 ft 468 kts 185°
2026-04-25 03:54 -25.08604 -70.34165 29271 ft 471 kts 185°
2026-04-25 03:54 -25.11887 -70.34058 29515 ft 474 kts 185°
2026-04-25 03:55 -25.15190 -70.33949 29770 ft 476 kts 185°
2026-04-25 03:55 -25.18510 -70.33834 30022 ft 478 kts 185°
2026-04-25 03:55 -25.21803 -70.33717 30243 ft 481 kts 185°
2026-04-25 03:55 -25.25149 -70.33600 30480 ft 482 kts 185°
2026-04-25 03:56 -25.28503 -70.33486 30705 ft 483 kts 186°
2026-04-25 03:56 -25.31870 -70.33377 30954 ft 484 kts 186°
2026-04-25 03:56 -25.35231 -70.33266 31293 ft 483 kts 186°
2026-04-25 03:56 -25.38583 -70.33152 31635 ft 481 kts 186°
2026-04-25 03:57 -25.41926 -70.33038 31969 ft 480 kts 186°
2026-04-25 03:57 -25.45255 -70.32926 32316 ft 478 kts 186°
2026-04-25 03:57 -25.48581 -70.32814 32655 ft 477 kts 186°
2026-04-25 03:57 -25.51896 -70.32700 33030 ft 476 kts 186°
2026-04-25 03:58 -25.55205 -70.32584 33401 ft 474 kts 186°
2026-04-25 03:58 -25.58499 -70.32472 33771 ft 473 kts 187°
2026-04-25 03:58 -25.61781 -70.32364 34115 ft 471 kts 187°
2026-04-25 03:58 -25.65056 -70.32254 34411 ft 470 kts 187°
2026-04-25 03:59 -25.68323 -70.32141 34703 ft 469 kts 187°
2026-04-25 03:59 -25.71587 -70.32028 34979 ft 469 kts 187°
2026-04-25 03:59 -25.74843 -70.31916 35247 ft 468 kts 187°
2026-04-25 03:59 -25.78094 -70.31807 35500 ft 467 kts 187°
2026-04-25 04:00 -25.81338 -70.31700 35780 ft 466 kts 188°
2026-04-25 04:00 -25.84569 -70.31590 36043 ft 464 kts 188°
2026-04-25 04:00 -25.87797 -70.31479 36294 ft 463 kts 188°
2026-04-25 04:00 -25.91021 -70.31370 36526 ft 463 kts 188°
2026-04-25 04:01 -25.94228 -70.31261 36744 ft 462 kts 188°
2026-04-25 04:01 -25.97439 -70.31154 36951 ft 461 kts 188°
2026-04-25 04:01 -26.03895 -70.30941 37041 ft 468 kts 188°
2026-04-25 04:02 -26.10321 -70.31162 37060 ft 463 kts 194°
2026-04-25 04:02 -26.16740 -70.31743 37042 ft 460 kts 194°
2026-04-25 04:03 -26.23094 -70.32317 37045 ft 455 kts 195°
2026-04-25 04:03 -26.28358 -70.32796 37046 ft 451 kts 195°
2026-04-25 04:04 -26.34590 -70.33372 37048 ft 447 kts 195°
2026-04-25 04:04 -26.40726 -70.33939 37048 ft 445 kts 195°
2026-04-25 04:05 -26.46887 -70.34515 37046 ft 443 kts 195°
2026-04-25 04:05 -26.53021 -70.35086 37053 ft 441 kts 196°
2026-04-25 04:06 -26.59156 -70.35656 37049 ft 444 kts 195°
2026-04-25 04:06 -26.65320 -70.36222 37051 ft 445 kts 195°
2026-04-25 04:07 -26.71496 -70.36795 37083 ft 446 kts 196°
2026-04-25 04:07 -26.77698 -70.37372 37070 ft 447 kts 196°
2026-04-25 04:08 -26.83907 -70.37945 37063 ft 448 kts 196°
2026-04-25 04:08 -26.90123 -70.38522 37059 ft 449 kts 196°
2026-04-25 04:09 -26.96360 -70.39102 37057 ft 450 kts 196°
2026-04-25 04:09 -27.02608 -70.39680 37055 ft 451 kts 196°
2026-04-25 04:10 -27.08863 -70.40267 37056 ft 451 kts 196°
2026-04-25 04:10 -27.15092 -70.40852 37055 ft 453 kts 196°
2026-04-25 04:11 -27.24528 -70.41732 37054 ft 454 kts 196°
2026-04-25 04:12 -27.30820 -70.42321 37076 ft 454 kts 197°
2026-04-25 04:12 -27.37120 -70.42913 37071 ft 454 kts 197°
2026-04-25 04:13 -27.43407 -70.43504 37070 ft 453 kts 197°
2026-04-25 04:13 -27.49681 -70.44092 37062 ft 452 kts 197°
2026-04-25 04:14 -27.55935 -70.44679 37089 ft 450 kts 197°
2026-04-25 04:14 -27.62131 -70.45256 37066 ft 449 kts 197°
2026-04-25 04:15 -27.68346 -70.45844 37061 ft 448 kts 197°
2026-04-25 04:15 -27.74546 -70.46436 37058 ft 446 kts 197°
2026-04-25 04:16 -27.80724 -70.47014 37059 ft 445 kts 197°
2026-04-25 04:16 -27.86890 -70.47596 37088 ft 444 kts 198°
2026-04-25 04:17 -27.93045 -70.48181 37076 ft 443 kts 198°
2026-04-25 04:17 -27.99182 -70.48765 37069 ft 442 kts 198°
2026-04-25 04:18 -28.05273 -70.49347 37058 ft 441 kts 198°
2026-04-25 04:18 -28.11378 -70.49926 37094 ft 439 kts 198°
2026-04-25 04:19 -28.17468 -70.50498 37079 ft 439 kts 198°
2026-04-25 04:19 -28.23552 -70.51081 37068 ft 438 kts 198°
2026-04-25 04:20 -28.29616 -70.51661 37064 ft 437 kts 198°
2026-04-25 04:20 -28.35681 -70.52238 37060 ft 438 kts 198°
2026-04-25 04:21 -28.41753 -70.52817 37101 ft 438 kts 199°
2026-04-25 04:21 -28.47781 -70.53395 37085 ft 436 kts 199°
2026-04-25 04:22 -28.53835 -70.53976 37072 ft 438 kts 199°
2026-04-25 04:22 -28.59927 -70.54541 37070 ft 440 kts 199°
2026-04-25 04:23 -28.66045 -70.55112 37074 ft 442 kts 199°
2026-04-25 04:23 -28.72199 -70.55698 37109 ft 445 kts 199°
2026-04-25 04:24 -28.78390 -70.56281 37085 ft 447 kts 199°
2026-04-25 04:24 -28.84622 -70.56861 37098 ft 451 kts 199°
2026-04-25 04:25 -28.90874 -70.57435 37095 ft 450 kts 199°
2026-04-25 04:25 -28.97064 -70.58018 37151 ft 447 kts 199°
2026-04-25 04:26 -29.03237 -70.58617 37134 ft 444 kts 200°
2026-04-25 04:26 -29.09384 -70.59217 37142 ft 443 kts 200°
2026-04-25 04:27 -29.15529 -70.59816 37132 ft 443 kts 200°
2026-04-25 04:27 -29.21678 -70.60417 37139 ft 443 kts 200°
2026-04-25 04:28 -29.27801 -70.61010 37136 ft 441 kts 200°
2026-04-25 04:28 -29.33920 -70.61604 37136 ft 441 kts 200°
2026-04-25 04:29 -29.40033 -70.62193 37116 ft 441 kts 200°
2026-04-25 04:29 -29.46119 -70.62793 37116 ft 442 kts 200°
2026-04-25 04:30 -29.52249 -70.63395 37179 ft 443 kts 200°
2026-04-25 04:30 -29.58411 -70.63996 37115 ft 445 kts 200°
2026-04-25 04:31 -29.64568 -70.64592 37112 ft 444 kts 200°
2026-04-25 04:31 -29.70704 -70.65188 37111 ft 441 kts 200°
2026-04-25 04:32 -29.76809 -70.65781 37107 ft 440 kts 200°
2026-04-25 04:32 -29.82897 -70.66377 37105 ft 438 kts 200°
2026-04-25 04:33 -29.88957 -70.66977 37100 ft 436 kts 200°
2026-04-25 04:33 -29.94968 -70.67570 37097 ft 432 kts 200°
2026-04-25 04:34 -30.00934 -70.68160 37093 ft 429 kts 200°
2026-04-25 04:34 -30.06823 -70.68735 37149 ft 426 kts 201°
2026-04-25 04:35 -30.12725 -70.69325 37136 ft 425 kts 201°
2026-04-25 04:35 -30.18602 -70.69914 37128 ft 423 kts 201°
2026-04-25 04:36 -30.24464 -70.70492 37119 ft 422 kts 201°
2026-04-25 04:36 -30.30302 -70.71061 37123 ft 420 kts 201°
2026-04-25 04:37 -30.36127 -70.71639 37128 ft 421 kts 201°
2026-04-25 04:37 -30.41964 -70.72230 37129 ft 421 kts 201°
2026-04-25 04:38 -30.47800 -70.72805 37127 ft 421 kts 201°
2026-04-25 04:38 -30.53644 -70.73387 37117 ft 421 kts 201°
2026-04-25 04:39 -30.59480 -70.73965 37113 ft 421 kts 201°
2026-04-25 04:39 -30.65330 -70.74537 37094 ft 423 kts 201°
2026-04-25 04:40 -30.71206 -70.75103 37104 ft 423 kts 201°
2026-04-25 04:40 -30.77035 -70.75664 37103 ft 423 kts 201°
2026-04-25 04:41 -30.82896 -70.76235 37104 ft 423 kts 201°
2026-04-25 04:41 -30.88762 -70.76814 37159 ft 424 kts 201°
2026-04-25 04:42 -30.94660 -70.77387 37120 ft 425 kts 200°
2026-04-25 04:42 -31.00541 -70.77954 37115 ft 422 kts 200°
2026-04-25 04:43 -31.06339 -70.78511 37130 ft 416 kts 201°
2026-04-25 04:43 -31.12115 -70.79082 37129 ft 417 kts 201°
2026-04-25 04:44 -31.17890 -70.79652 37170 ft 416 kts 200°
2026-04-25 04:44 -31.23642 -70.80226 37163 ft 418 kts 200°
2026-04-25 04:45 -31.29444 -70.80792 37154 ft 418 kts 200°
2026-04-25 04:45 -31.35237 -70.81352 37092 ft 419 kts 200°
2026-04-25 04:45 -31.38151 -70.81643 36841 ft 421 kts 200°
2026-04-25 04:46 -31.41086 -70.81937 36326 ft 426 kts 199°
2026-04-25 04:46 -31.44053 -70.82243 35688 ft 430 kts 197°
2026-04-25 04:46 -31.47044 -70.82545 35182 ft 431 kts 196°
2026-04-25 04:46 -31.50025 -70.82837 34689 ft 429 kts 196°
2026-04-25 04:47 -31.52989 -70.83117 34154 ft 426 kts 195°
2026-04-25 04:47 -31.55930 -70.83394 33606 ft 422 kts 195°
2026-04-25 04:47 -31.58842 -70.83670 33090 ft 416 kts 195°
2026-04-25 04:47 -31.61706 -70.83946 32591 ft 411 kts 195°
2026-04-25 04:48 -31.64536 -70.84225 32110 ft 406 kts 195°
2026-04-25 04:48 -31.67342 -70.84509 31606 ft 402 kts 194°
2026-04-25 04:48 -31.70117 -70.84784 31147 ft 399 kts 194°
2026-04-25 04:48 -31.72878 -70.85061 30661 ft 397 kts 194°
2026-04-25 04:49 -31.75631 -70.85275 30172 ft 400 kts 188°
2026-04-25 04:49 -31.78419 -70.85196 29645 ft 399 kts 187°
2026-04-25 04:49 -31.81178 -70.85099 29183 ft 395 kts 187°
2026-04-25 04:49 -31.83911 -70.84996 28725 ft 391 kts 187°
2026-04-25 04:50 -31.86605 -70.84892 28284 ft 385 kts 187°
2026-04-25 04:50 -31.89237 -70.84793 27848 ft 382 kts 187°
2026-04-25 04:50 -31.91879 -70.84698 27409 ft 378 kts 187°
2026-04-25 04:50 -31.94502 -70.84601 27005 ft 375 kts 187°
2026-04-25 04:51 -31.97098 -70.84508 26542 ft 373 kts 187°
2026-04-25 04:51 -31.99682 -70.84417 26113 ft 370 kts 187°
2026-04-25 04:51 -32.02255 -70.84329 25670 ft 369 kts 187°
2026-04-25 04:51 -32.04813 -70.84243 25221 ft 367 kts 187°
2026-04-25 04:52 -32.07355 -70.84157 24772 ft 365 kts 187°
2026-04-25 04:52 -32.09892 -70.84069 24308 ft 365 kts 187°
2026-04-25 04:52 -32.12431 -70.83978 23848 ft 364 kts 186°
2026-04-25 04:52 -32.14964 -70.83886 23326 ft 364 kts 186°
2026-04-25 04:53 -32.17484 -70.83791 22858 ft 361 kts 186°
2026-04-25 04:53 -32.19984 -70.83701 22408 ft 359 kts 186°
2026-04-25 04:53 -32.22476 -70.83612 21956 ft 358 kts 186°
2026-04-25 04:53 -32.24965 -70.83523 21507 ft 356 kts 185°
2026-04-25 04:54 -32.27437 -70.83436 21072 ft 355 kts 186°
2026-04-25 04:54 -32.29888 -70.83351 20643 ft 350 kts 185°
2026-04-25 04:54 -32.32323 -70.83267 20213 ft 349 kts 185°
2026-04-25 04:54 -32.34744 -70.83182 19791 ft 348 kts 184°
2026-04-25 04:55 -32.37162 -70.83097 19368 ft 348 kts 184°
2026-04-25 04:55 -32.39582 -70.83014 18941 ft 347 kts 184°
2026-04-25 04:55 -32.41994 -70.82928 18532 ft 347 kts 184°
2026-04-25 04:55 -32.44380 -70.82841 18074 ft 348 kts 183°
2026-04-25 04:56 -32.46791 -70.82754 17652 ft 345 kts 183°
2026-04-25 04:56 -32.49176 -70.82667 17234 ft 340 kts 183°
2026-04-25 04:56 -32.51508 -70.82582 16848 ft 333 kts 182°
2026-04-25 04:56 -32.53812 -70.82493 16463 ft 329 kts 182°
2026-04-25 04:57 -32.56103 -70.82406 16075 ft 330 kts 182°
2026-04-25 04:57 -32.58400 -70.82326 15696 ft 331 kts 182°
2026-04-25 04:57 -32.60700 -70.82249 15314 ft 331 kts 181°
2026-04-25 04:57 -32.63006 -70.82168 14941 ft 332 kts 181°
2026-04-25 04:58 -32.65319 -70.82080 14549 ft 332 kts 181°
2026-04-25 04:58 -32.67623 -70.81992 14164 ft 331 kts 180°
2026-04-25 04:58 -32.69926 -70.81908 13855 ft 328 kts 180°
2026-04-25 04:58 -32.72176 -70.81826 13735 ft 319 kts 180°
2026-04-25 04:59 -32.74356 -70.81746 13600 ft 309 kts 180°
2026-04-25 04:59 -32.75771 -70.81694 13518 ft 304 kts 180°
2026-04-25 04:59 -32.77856 -70.81620 13336 ft 296 kts 180°
2026-04-25 04:59 -32.80572 -70.81524 12671 ft 294 kts 180°
2026-04-25 05:00 -32.82601 -70.81451 12200 ft 291 kts 180°
2026-04-25 05:00 -32.84614 -70.81375 11792 ft 286 kts 179°
2026-04-25 05:00 -32.86602 -70.81298 11356 ft 289 kts 179°
2026-04-25 05:00 -32.88620 -70.81225 11060 ft 287 kts 179°
2026-04-25 05:01 -32.89962 -70.81176 10860 ft 286 kts 179°
2026-04-25 05:01 -32.91942 -70.81131 10556 ft 282 kts 184°
2026-04-25 05:01 -32.93880 -70.81389 10064 ft 280 kts 188°
2026-04-25 05:01 -32.95806 -70.81684 9523 ft 277 kts 188°
2026-04-25 05:02 -32.97674 -70.81970 9093 ft 271 kts 187°
2026-04-25 05:02 -32.99510 -70.82249 8735 ft 261 kts 188°
2026-04-25 05:02 -33.01311 -70.82351 8397 ft 259 kts 177°
2026-04-25 05:02 -33.03111 -70.82250 8060 ft 258 kts 178°
2026-04-25 05:03 -33.04903 -70.82152 7722 ft 257 kts 178°
2026-04-25 05:03 -33.06687 -70.82054 7390 ft 256 kts 177°
2026-04-25 05:03 -33.08461 -70.81953 7058 ft 255 kts 177°
2026-04-25 05:03 -33.10226 -70.81851 6727 ft 253 kts 177°
2026-04-25 05:04 -33.11963 -70.81751 6390 ft 245 kts 177°
2026-04-25 05:04 -33.13637 -70.81654 6068 ft 237 kts 177°
2026-04-25 05:04 -33.15240 -70.81562 5941 ft 221 kts 177°
2026-04-25 05:04 -33.16694 -70.81479 5952 ft 197 kts 177°
2026-04-25 05:05 -33.18024 -70.81401 5635 ft 192 kts 177°
2026-04-25 05:05 -33.19375 -70.81326 5175 ft 195 kts 177°
2026-04-25 05:05 -33.20711 -70.81254 4855 ft 189 kts 177°
2026-04-25 05:05 -33.22000 -70.81185 4578 ft 182 kts 177°
2026-04-25 05:06 -33.23239 -70.81119 4326 ft 174 kts 177°
2026-04-25 05:06 -33.24429 -70.81055 4111 ft 168 kts 177°
2026-04-25 05:06 -33.25595 -70.80993 3892 ft 167 kts 177°
2026-04-25 05:06 -33.26736 -70.80932 3679 ft 166 kts 177°
2026-04-25 05:07 -33.27887 -70.80870 3469 ft 163 kts 177°
2026-04-25 05:07 -33.28989 -70.80811 3254 ft 154 kts 177°
2026-04-25 05:07 -33.30046 -70.80754 3042 ft 151 kts 177°
2026-04-25 05:07 -33.31098 -70.80699 2829 ft 151 kts 177°
2026-04-25 05:08 -33.32152 -70.80642 2611 ft 152 kts 177°
2026-04-25 05:08 -33.33208 -70.80586 2395 ft 152 kts 176°
2026-04-25 05:08 -33.34263 -70.80529 2177 ft 152 kts 176°
2026-04-25 05:08 -33.35315 -70.80472 1979 ft 151 kts 176°
2026-04-25 05:09 -33.36363 -70.80418 1780 ft 150 kts 176°
2026-04-25 05:09 -33.37410 -70.80362 1595 ft 149 kts 177°
2026-04-25 05:09 -33.38344 -70.80313 1573 ft 113 kts 177°
2026-04-25 05:09 -33.38957 -70.80279 1574 ft 63 kts 177°
2026-04-25 05:10 -33.39237 -70.80254 1572 ft 20 kts 166°
2026-04-25 05:10 -33.39362 -70.80175 1570 ft 20 kts 148°
2026-04-25 05:10 -33.39439 -70.80117 1567 ft 10 kts 147°
2026-04-25 05:10 -33.39490 -70.80076 1566 ft 7 kts 142°
2026-04-25 05:11 -33.39531 -70.80048 1566 ft 6 kts 165°
2026-04-25 05:11 -33.39571 -70.80041 1566 ft 5 kts 175°
2026-04-25 05:11 -33.39615 -70.80039 1566 ft 7 kts 178°
2026-04-25 05:12 -33.39760 -70.80030 1566 ft 14 kts 177°
2026-04-25 05:12 -33.39867 -70.80024 1566 ft 16 kts 176°
2026-04-25 05:12 -33.39985 -70.80017 1566 ft 17 kts 177°
2026-04-25 05:12 -33.40092 -70.80011 1567 ft 15 kts 173°
2026-04-25 05:13 -33.40203 -70.79997 1567 ft 17 kts 176°
2026-04-25 05:13 -33.40323 -70.79989 1567 ft 17 kts 177°
2026-04-25 05:13 -33.40403 -70.79981 1567 ft 10 kts 175°
2026-04-25 05:13 -33.40474 -70.79974 1566 ft 9 kts 166°
2026-04-25 05:14 -33.40489 -70.79907 1565 ft 10 kts 85°
2026-04-25 05:14 -33.40486 -70.79828 1565 ft 9 kts 86°
2026-04-25 05:14 -33.40482 -70.79750 1565 ft 10 kts 89°
2026-04-25 05:15 -33.40479 -70.79621 1564 ft 3 kts 88°
2026-04-25 05:15 -33.40478 -70.79591 1564 ft 5 kts 85°
2026-04-25 05:15 -33.40451 -70.79564 1564 ft 6 kts
2026-04-25 05:15 -33.40405 -70.79568 1564 ft 5 kts 357°
2026-04-25 05:16 -33.40386 -70.79569 1564 ft 2 kts 358°
2026-04-25 05:16 -33.40380 -70.79569 1564 ft 0 kts 358°